Stewart International Airport
KSWF : now visible

Airfield :











YOU CAN JOIN US ON...

 
LOGIN :

Register | Disclaimer

   EN    FR    IT 

 









Legend :    VFR   Marginal VFR   IFR   Intensive IFR   Very Intensive IFR
Visi :
Ceiling :
>= 8 km
>= 3000ft
5 to 8 km
1000 to 3000 ft
1500m to 5 km
500 to 1000 ft
800 to 1500m
200 to 500 ft
< 800m
< 200 ft
Symbols :   Thunderstorms  Fog  Heavy snow  Heavy precipitations  Wind > 20 kt






- Airport Elevation : 491 ft
- IATA code : SWF


KSWF - Stewart International

CURRENT METAR :
  • 270145Z 27006KT 10SM BKN040 04/M01 A2975

EXPIRED METARs :
  • 270045Z 27006KT 10SM BKN040 04/M01 A2975
  • 262345Z 27006KT 10SM BKN040 04/M01 A2974

TAF KSWF
Valid from the 27 at 00:00 until the 28 at 06:00 UTC


262324Z 2700/2806 27006KT P6SM BKN040
FM270300 26006KT P6SM SCT035 SCT060 SCT100
FM271500 29013G21KT P6SM BKN035
FM272300 28010KT P6SM BKN120 AMD NOT SKED



MET'MAP, your aeronautical weather chart ! - Copyright ORBIFLY December 2007 - Disclaimer

ORBIFLY MET'MAP TEAM :

Programming & Development : Alexandra Zaïnal
Concept & original design : Baudouin d'Aumeries
Assistance for programming : Marc-Olivier Méhu
Technical & hardware support : Manuel Goepfert

Contact : metmap@orbifly.com




SOURCES & CREDITS :

   NOAA       Earth
Advisory